Weather Service Report


887 
ASUS44 KLZK 282005
RWRLZK

WEATHER ROUNDUP FOR ARKANSAS
NATIONAL WEATHER SERVICE LITTLE ROCK AR
300 PM CDT THU MAY 28 2015

NOTE: "FAIR" INDICATES FEW OR NO CLOUDS BELOW 12,000 FEET WITH NO
SIGNIFICANT WEATHER AND/OR OBSTRUCTIONS TO VISIBILITY.

ARZ001-003-010-029-282100-
NORTHWEST ARKANSAS
  
CITY           SKY/WX    TMP DP  RH WIND       PRES   REMARKS
FAYETTEVILLE   LGT RAIN  70  68  93 CALM      30.07F                  
FORT SMITH     CLOUDY    74  66  76 W6        30.06F                  
HARRISON       CLOUDY    73  68  84 SE8       30.09F                  
BENTONVILLE    CLOUDY    70  66  88 S9G22     30.07F THUNDER          
ROGERS         LGT RAIN  71  68  90 SE9       30.07F                  
SILOAM SPGS    CLOUDY    72  63  73 CALM      30.08F                  
HIGHFILL       CLOUDY    70  70 100 S13       30.07F                  
SPRINGDALE     RAIN      72  68  88 S8        30.09F FOG              
$$

ARZ004-005-016-282100-
NORTH CENTRAL ARKANSAS
  
CITY           SKY/WX    TMP DP  RH WIND       PRES   REMARKS
BATESVILLE     PTSUNNY   81  70  69 E8        30.10S                  
FLIPPIN          N/A     81  68  65 SE5       30.06F                  
MTN HOME       CLOUDY    79  68  69 SE7       30.07F                  
$$

ARZ040-041-282100-
WEST CENTRAL ARKANSAS
  
CITY           SKY/WX    TMP DP  RH WIND       PRES   REMARKS
MENA           CLOUDY    72  66  83 CALM      30.11S                  
MOUNT IDA      CLOUDY    67  65  93 CALM      30.08F                  
$$

ARZ009-017-025-026-028-282100-
NORTHEAST ARKANSAS
  
CITY           SKY/WX    TMP DP  RH WIND       PRES   REMARKS
JONESBORO      PTSUNNY   79  68  69 E8        30.11F                  
NEWPORT        PTSUNNY   83  68  60 VRB6      30.12F HX  86           
WALNUT RIDGE   MOSUNNY   81  64  57 SE12      30.11F                  
BLYTHEVILLE    PTSUNNY   79  69  71 CALM      30.13F                  
$$

ARZ022-023-033-042-044-282100-
CENTRAL ARKANSAS
  
CITY           SKY/WX    TMP DP  RH WIND       PRES   REMARKS
LITTLE ROCK    PTSUNNY   83  67  58 S6        30.11S HX  85           
N LITTLE ROCK  PTSUNNY   82  69  66 SE7       30.11S HX  85           
JACKSONVILLE   PTSUNNY   83  69  60 S6        30.10F HX  87           
SEARCY         PTSUNNY   82  70  66 SE9       30.12F HX  86           
HOT SPRINGS    LGT RAIN  68  65  90 SE8       30.10F                  
RUSSELLVILLE   LGT RAIN  68  66  93 E3        30.08F                  
CLINTON        FAIR      81  70  69 S5        30.12R                  
$$

ARZ036-282100-
EAST ARKANSAS
  
CITY           SKY/WX    TMP DP  RH WIND       PRES   REMARKS
WEST MEMPHIS   MOSUNNY   80  70  71 SE6       30.10F                  
$$

ARZ050-053-066-070-073-282100-
SOUTHWEST ARKANSAS
  
CITY           SKY/WX    TMP DP  RH WIND       PRES   REMARKS
ARKADELPHIA    FAIR      68  68 100 VRB3      30.12F                  
CAMDEN         HVY RAIN  68  64  88 CALM      30.14R VSB 1/2          
TEXARKANA      CLOUDY    75  66  73 E7        30.08F                  
EL DORADO      TSTM      71  69  93 NW14      30.11R FOG              
DE QUEEN       CLOUDY    77  69  76 E18       30.06R                  
$$

ARZ056-057-069-282100-
SOUTHEAST ARKANSAS
  
CITY           SKY/WX    TMP DP  RH WIND       PRES   REMARKS
PINE BLUFF     MOSUNNY   84  67  56 E5        30.11S HX  86           
STUTTGART      PTSUNNY   82  68  61 MISG      30.12S HX  85           
MONTICELLO     PTSUNNY   83  70  64 MISG      30.10S HX  87           

$$



Return to Home page


Western Regional Climate Center, wrcc@dri.edu